Regional Weather Roundup
Issued by NWS

Home | Current Version | Previous Version | Text Only | Print | Product List | Glossary On
Versions: 1 2 3 4 5 6 7 8 9 10 11 12 13 14 15 16 17 18 19 20 21 22 23 24 25 26 27 28 29 30 31 32 33 34 35 36 37 38 39 40 41 42 43 44 45 46 47 48 49 50
000
ASUS44 KMEG 011410
RWRTN
TENNESSEE HOURLY STATE WEATHER ROUNDUP
NATIONAL WEATHER SERVICE MEMPHIS TN
900 AM CDT SAT AUG 01 2015

TNZ002-004-019-021-049-052-054-088>092-011500-
WEST TENNESSEE

CITY           SKY/WX    TMP DP  RH WIND       PRES   REMARKS
MEMPHIS INTL   MOSUNNY   85  68  56 CALM      30.04F
NWS MEMPHIS      N/A     84 N/A N/A MISG        N/A
JACKSON        SUNNY     83  68  60 N6        30.05F
DYERSBURG        N/A    N/A N/A N/A MISG        N/A
PARIS          SUNNY     79  70  73 CALM      30.05F
LEXINGTON      SUNNY     79  70  73 NE3       30.04F
$$

TNZ008-025-027-028-033-062-065-066-011500-
NORTH MIDDLE TENNESSEE

CITY           SKY/WX    TMP DP  RH WIND       PRES   REMARKS
NASHVILLE      SUNNY     81  66  60 N5        30.06S
CLARKSVILLE    SUNNY     81  69  67 NW5       30.04F
SMYRNA         SUNNY     77  73  87 CALM      30.06F
CROSSVILLE     SUNNY     76  64  66 CALM      30.11S
$$

TNZ061-075-076-078-094-096-097-011500-
SOUTH MIDDLE TENNESSEE

CITY           SKY/WX    TMP DP  RH WIND       PRES   REMARKS
FAYETTEVILLE   SUNNY     73  63  68 NE8       30.06S
TULLAHOMA      SUNNY     75  63  64 VRB5      30.07F
WINCHESTER     SUNNY     77  64  65 NE6       30.06S
MCMINNVILLE    SUNNY     75  66  73 NE3       30.06F
COLUMBIA       SUNNY     77  72  83 N3        30.04F
SHELBYVILLE    SUNNY     79  70  73 CALM      30.06F
$$

TNZ017-018-042-046-047-011500-
NORTHEAST TENNESSEE

CITY           SKY/WX    TMP DP  RH WIND       PRES   REMARKS
TRI CITIES     SUNNY     72  61  68 CALM      30.07S
ELIZABETHTON   SUNNY     72  61  68 SE5       30.07F
$$

TNZ012-013-036-069-073-074-011500-
CENTRAL EAST TENNESSEE

CITY           SKY/WX    TMP DP  RH WIND       PRES   REMARKS
KNOXVILLE      MOSUNNY   76  65  68 E3        30.04F
OAK RIDGE      SUNNY     77  66  68 CALM      30.06F
GATLINBURG     SUNNY     75  61  60 CALM      30.05S
MORRISTOWN     SUNNY     79  64  61 CALM      30.07S
$$

TNZ083-085-099-011500-
SOUTHEAST TENNESSEE

CITY           SKY/WX    TMP DP  RH WIND       PRES   REMARKS
CHATTANOOGA    MOSUNNY   79  62  56 NE9       30.03S
$$

SKY/WX REPORTED AS FAIR MEANS FEW OR NO CLOUDS BELOW
12 THOUSAND FEET.




USA.gov is the U.S. government's official web portal to all federal, state and local government web resources and services.